COSMOS 2499 DEB, 60609

Orbit data source: Space-Track

COSMOS 2499 DEB, 60609 is space debris in LEO originally from a launch on Fri, 23 May 2014 UTC launched from the Plesetsk Missile And Space Complex (PKMTR). Debris objects in space refer to the collection of defunct objects orbiting the Earth. Examples of debris include non-operational satellites, rocket bodies, and fragments generated from explosions, collisions, or faulty payload assembly.

Loading next visibility...
Identifier
60609, 2014-028BV
Orbit
LEO
Country
Flag of CISCIS
Related business
Manufacturer
TsNIIKhM
Mission
Spacecraft
Bus & Motor
Unknown
Mass
Unknown
Launch date (UTC)
2014-05-23 (12 years ago)
Launch vehicle
Unknown
Launch site
Plesetsk Missile And Space Complex (PKMTR)
Object type
Payload
Rocket body
Debris
Shape & HBR
Unknown shape, 0.1 m
Radar Cross Section
Small (<0.1 m²)

Expand to show TLE details & history
Last TLE update: 3 days ago

TLE from 3 days ago
0 COSMOS 2499 DEB
1 60609U 14028BV  25347.60328265  .00006126  00000-0  95321-2 0  9996
2 60609  82.2822 307.7461 0287288 257.4772  99.4088 13.35458451125638
Epoch: 2025-12-13T14:28Z
TLE epoch observation values (Epoch: 2025-12-13T14:28:43.620Z)
Latitude
-0°
Longitude
8.03617°
Altitude
1,170.307 km
Speed
7.248 km/s
True Right ascension
20h 30m 59s
True Declination
0° 00' 00"
Sunlit
Object was in daylight at epoch
Visualization orbit readout
Latitude
Unknown
Longitude
Unknown
Altitude
Unknown
Speed
Unknown
Apparent Right ascension
Unknown
Apparent Declination
Unknown
Sunlit
N/A
Visualization observer readout
Local Sidereal Time
11:10:54
Azimuth
Unknown
Elevation
Unknown
Doppler factor
Unknown
Orbital elements
Apogee altitude
1,338.983 km
Perigee altitude
907.959 km
Semi-major axis
7,501.608 km
Eccentricity
0.02873
Inclination
82.2822°
RAAN
307.7461°
Arg. of periapsis
257.4772°
True anomaly
102.63592°
Mean anomaly
99.4088°
Eccentric anomaly
101.02446°
Mean motion
3.3405 °/min
Orbital period
107.77 mins
BSTAR
0.0095321
Loading maneuver chart data...
Computing Atmospheric mass density...
Loading historical data...
Loading historical data...
Loading historical data...
Loading historical data...
Loading historical data...
Loading historical data...
Loading historical data...

Documentation

Showing up to 5 results
|